Wind_Speed
16 17 16 16 14 14 17 19 17 15 15 16 16 12 12 9 10 14 14 13 14 11 8 8 8 4 9 7 8 9 12 20 20 18 22 19 21 23 25 28 27 27 26
15 14 14 14 14 17 19 17 16 15 15 13 14 10 8 9 10 15 16 12 9 9 9 8 5 7 6 9 7 8 12 19 21 22 23 19 13 8 31 25 28 26 26
12 13 14 14 16 18 17 17 15 14 12 10 12 8 7 8 10 11 9 5 7 7 3 7 7 8 10 9 9 9 14 17 21 23 17 19 18 17 19 32 26 21 24
11 13 12 14 17 19 18 17 14 12 10 8 10 9 9 7 9 12 4 4 6 8 3 2 5 5 18 11 9 14 17 18 21 24 17 18 18 21 21 25 24 20 27
10 11 11 14 16 15 14 12 14 12 11 7 9 10 9 6 5 6 5 3 6 6 3 6 6 7 14 15 12 15 20 20 22 22 20 16 18 18 23 24 24 25 18
10 9 11 12 10 10 11 9 9 10 7 5 7 11 6 5 4 5 3 3 7 7 6 3 7 7 11 15 14 16 20 24 25 21 22 22 20 18 20 25 23 15 15
8 8 11 9 9 12 10 9 9 10 8 5 7 11 6 5 1 5 4 4 6 6 7 4 5 7 11 14 16 18 19 22 23 28 27 26 22 21 22 23 22 16 14
7 8 9 8 10 11 9 9 9 9 8 7 8 11 7 4 3 4 5 6 11 9 7 7 5 7 8 14 17 19 20 23 24 23 22 22 23 20 20 24 23 19 11
6 8 6 6 9 8 8 9 11 10 10 10 10 12 10 8 2 1 3 5 11 9 11 11 8 10 11 15 19 20 21 21 20 20 20 20 21 22 24 25 23 19 18
6 4 4 5 7 8 9 10 11 9 10 14 14 15 11 9 4 3 1 5 6 10 14 16 19 15 12 15 18 20 19 20 18 19 20 21 22 25 24 24 24 24 20
5 1 3 5 7 8 11 8 4 7 7 10 16 16 13 9 5 5 3 5 7 11 11 12 14 15 14 14 14 17 19 19 18 18 20 23 20 21 21 24 26 22 18
4 1 3 4 5 8 6 1 1 1 4 10 15 16 13 9 8 5 4 5 7 7 12 11 11 12 12 12 16 16 19 21 21 19 19 21 18 18 21 23 19 17 15
5 2 1 1 4 6 5 2 1 1 7 11 14 12 10 7 9 8 4 4 6 8 9 10 9 10 11 12 16 17 19 19 20 18 18 19 23 25 21 18 19 20 16
6 4 4 4 5 7 12 10 6 6 8 11 12 12 8 8 9 8 4 2 6 10 12 11 11 11 11 12 16 16 17 20 23 22 24 26 22 17 18 19 19 17 14
7 8 8 6 6 8 12 12 14 11 10 14 14 11 9 8 9 10 8 9 11 12 14 15 13 12 14 15 13 14 15 17 18 21 21 16 17 20 20 17 15 11 10
11 12 11 10 11 12 13 13 15 18 16 18 19 13 10 16 17 18 20 20 18 14 13 11 10 14 18 19 17 16 17 14 14 17 18 21 19 16 15 14 11 10 7
15 17 16 15 13 12 12 13 15 21 28 21 20 23 19 15 15 15 16 17 20 23 23 18 14 13 13 15 16 16 15 17 19 22 19 17 16 14 12 10 8 7 6
17 18 16 14 11 9 10 11 14 16 20 21 20 18 17 14 13 12 13 14 17 19 19 19 19 18 20 19 20 20 20 20 17 15 16 14 11 9 9 8 8 7 5
19 20 17 14 11 10 11 13 16 18 20 19 18 19 18 17 15 13 13 12 11 13 15 16 16 17 17 16 15 15 16 17 16 15 13 11 10 10 9 6 3 4 7
22 21 21 18 15 12 11 13 15 16 16 16 13 11 12 13 13 13 13 12 11 13 14 14 14 15 15 15 16 16 15 14 12 11 10 7 5 4 4 3 6 9 12
23 22 21 21 19 16 13 12 12 12 11 10 10 9 8 8 9 10 11 11 10 11 12 14 14 12 11 11 10 9 8 7 6 6 6 5 6 7 8 9 11 13 15
24 23 22 21 21 21 19 16 13 12 12 11 9 8 7 6 7 8 8 8 9 10 10 9 7 6 5 5 5 5 6 6 8 9 10 10 10 11 11 12 14 16 19
19 21 24 24 23 22 21 21 19 17 16 15 14 13 12 10 9 8 7 8 8 7 6 7 7 7 8 8 9 9 9 10 11 10 11 12 14 15 17 19 21 22 24
22 21 23 25 25 26 25 23 22 20 19 18 18 18 18 17 16 15 14 13 13 13 12 12 12 13 13 13 14 15 16 18 18 19 20 20 20 21 23 24 25 27 28
28 27 25 25 25 25 26 26 25 24 23 22 22 22 21 21 21 21 20 20 20 19 19 19 19 20 20 20 20 21 21 23 24 26 26 26 25 26 27 28 30 32 31
33 31 30 29 26 23 24 24 24 23 22 22 23 23 23 23 24 24 24 23 23 23 24 25 26 27 28 28 27 27 27 28 29 29 29 29 28 28 30 32 34 35 34
Wind_Direction
274 278 284 296 285 285 291 296 290 277 292 318 308 282 286 285 292 308 313 310 316 301 297 303 279 271 227 213 215 196 182 177 178 182 188 183 198 209 200 194 191 192 190
276 281 295 290 286 292 294 292 287 280 298 311 309 285 284 291 318 324 308 304 310 295 279 253 273 253 238 206 186 180 177 177 173 177 181 186 182 209 197 197 177 183 193
275 289 298 288 290 291 292 290 283 281 292 312 301 273 275 302 333 338 348 354 355 344 300 237 235 251 200 194 185 190 178 175 177 177 157 149 152 155 174 192 164 182 184
281 297 290 290 294 294 289 279 276 279 291 305 289 251 256 290 330 335 320 336 1 3 339 257 237 228 199 190 184 180 175 176 180 181 173 174 160 172 170 161 169 175 176
291 288 292 299 299 292 293 288 271 270 279 298 281 239 244 286 311 327 309 323 360 359 19 43 12 208 195 166 161 163 173 173 171 171 180 177 178 178 172 168 166 168 175
288 289 299 298 296 302 293 285 269 262 266 294 253 227 234 268 296 337 342 348 349 360 37 32 61 133 172 180 159 162 172 172 168 166 169 173 180 181 173 175 163 158 169
286 293 293 288 302 305 304 300 288 272 263 269 230 216 207 225 294 357 12 7 350 49 40 41 134 107 147 159 157 156 163 167 170 170 171 176 174 173 172 182 184 184 179
277 285 289 305 309 305 308 321 311 286 258 231 212 204 180 176 112 63 39 32 10 60 70 66 82 153 159 165 164 160 163 165 166 176 175 175 173 174 175 173 178 164 170
264 276 302 323 313 297 309 308 311 293 242 211 195 196 171 174 175 40 41 59 28 51 93 88 87 135 139 159 161 163 164 167 167 168 174 182 186 179 170 169 175 180 188
253 279 315 318 302 309 306 305 312 283 251 223 198 183 171 170 201 172 79 91 62 75 102 95 99 97 130 151 164 170 168 166 169 181 180 186 182 174 174 174 169 170 165
229 295 303 301 306 324 320 313 294 291 252 197 187 170 168 181 186 174 161 132 96 95 109 98 100 100 112 119 152 168 175 171 174 174 173 170 169 171 170 162 163 161 167
189 270 284 310 327 348 6 25 337 319 128 154 170 163 171 188 166 172 178 169 139 113 121 121 114 108 113 120 133 141 151 158 163 162 164 168 168 164 160 151 158 173 158
168 218 221 8 18 23 12 235 300 157 140 153 168 175 178 184 169 168 178 177 172 159 129 133 145 137 128 125 130 133 134 140 151 158 163 163 155 147 151 155 155 143 153
174 174 133 112 84 56 58 70 89 125 139 153 164 160 156 148 143 139 126 151 165 169 157 140 126 133 133 132 134 141 148 147 144 145 146 148 149 151 147 148 154 159 152
172 159 135 136 122 98 87 88 82 95 136 153 148 145 133 110 109 104 114 119 140 146 158 155 140 130 129 126 119 122 122 126 134 146 150 146 143 144 149 153 150 151 165
163 143 135 135 132 117 108 95 79 77 127 150 134 128 124 120 103 98 99 98 104 122 136 143 149 140 138 133 125 128 140 138 144 155 150 149 148 143 141 147 160 177 186
159 140 139 136 131 123 112 99 88 84 94 116 122 124 121 112 108 107 102 98 94 96 103 108 114 141 152 149 143 147 145 138 142 139 150 145 142 146 153 161 167 175 200
160 149 150 147 143 135 128 121 111 108 109 115 117 114 112 106 102 101 105 110 113 114 113 111 108 109 115 120 128 133 137 142 146 145 145 152 155 158 166 179 199 219 252
168 160 163 158 149 137 127 128 124 118 112 109 110 110 108 106 106 112 111 111 120 127 129 130 132 135 136 137 140 141 142 143 147 153 165 178 185 192 202 219 257 291 287
179 174 174 171 168 158 142 134 130 130 127 125 123 118 110 109 112 111 108 119 118 118 118 120 128 135 139 141 144 147 155 166 175 184 194 210 227 228 235 263 273 274 283
185 186 187 185 183 185 181 167 150 144 144 142 135 133 130 125 119 112 117 121 115 113 123 124 121 118 122 132 140 149 157 162 166 172 181 188 211 238 245 256 269 276 285
191 193 196 200 199 196 201 202 196 181 174 169 160 154 155 152 150 156 156 150 146 147 151 158 166 171 170 170 173 186 200 211 212 207 206 212 225 245 261 272 281 290 295
211 205 202 204 208 210 208 208 211 206 201 198 195 196 204 211 217 216 199 197 208 215 218 216 216 222 226 231 236 242 248 254 260 265 265 262 263 264 265 270 276 283 289
207 214 216 214 213 212 215 217 217 217 214 214 215 213 215 219 224 230 234 233 230 228 231 238 243 247 250 255 257 259 260 264 267 269 271 274 276 277 278 279 281 283 285
218 209 214 224 225 224 224 222 223 228 228 228 230 231 231 232 234 236 238 241 241 241 240 241 244 248 252 257 260 263 265 269 271 272 273 273 273 274 278 282 285 287 289
220 225 217 215 221 226 231 233 236 236 239 242 245 248 248 248 249 249 248 247 248 249 253 254 253 252 253 255 256 259 262 266 268 269 270 270 271 272 275 277 278 276 272
Height
5725 5725 5725 5724 5723 5721 5720 5718 5715 5715 5713 5712 5709 5707 5706 5704 5702 5700 5698 5696 5693 5691 5691 5690 5690 5691 5692 5693 5694 5697 5699 5702 5705 5710 5716 5719 5724 5728 5733 5739 5745 5749 5755
5721 5721 5720 5719 5718 5717 5715 5713 5711 5711 5710 5708 5705 5704 5703 5702 5700 5698 5695 5693 5691 5689 5688 5687 5687 5689 5690 5692 5694 5696 5699 5701 5705 5709 5714 5717 5722 5726 5729 5735 5741 5748 5754
5717 5717 5715 5715 5714 5712 5710 5709 5708 5707 5706 5704 5703 5702 5702 5700 5699 5697 5695 5692 5690 5687 5685 5685 5685 5686 5688 5690 5693 5696 5699 5703 5706 5710 5711 5717 5721 5725 5727 5732 5741 5744 5752
5713 5712 5711 5711 5709 5707 5705 5704 5703 5703 5702 5701 5701 5700 5700 5699 5698 5696 5694 5692 5690 5687 5685 5684 5683 5684 5686 5689 5692 5695 5698 5703 5706 5711 5715 5719 5725 5729 5732 5736 5742 5748 5753
5709 5709 5707 5706 5704 5702 5701 5699 5699 5698 5699 5699 5698 5698 5697 5698 5697 5696 5694 5692 5690 5687 5686 5684 5682 5682 5684 5689 5692 5694 5698 5703 5707 5712 5718 5722 5727 5732 5736 5740 5744 5749 5754
5706 5705 5704 5702 5701 5700 5698 5696 5695 5696 5696 5697 5696 5695 5696 5696 5696 5695 5693 5691 5690 5688 5686 5685 5683 5683 5685 5689 5693 5695 5698 5702 5706 5712 5717 5722 5727 5732 5737 5741 5746 5750 5755
5703 5702 5701 5700 5699 5698 5696 5694 5693 5693 5693 5694 5693 5693 5694 5695 5696 5695 5693 5692 5691 5689 5687 5685 5684 5685 5687 5690 5694 5697 5700 5705 5709 5712 5716 5720 5726 5731 5737 5742 5746 5751 5754
5700 5700 5699 5698 5697 5696 5695 5692 5691 5690 5690 5691 5691 5692 5694 5695 5696 5695 5694 5694 5693 5691 5688 5687 5686 5686 5688 5692 5696 5699 5703 5707 5710 5715 5720 5724 5728 5732 5737 5741 5747 5750 5754
5698 5698 5697 5696 5695 5695 5693 5691 5689 5688 5688 5688 5690 5691 5693 5695 5696 5696 5695 5696 5695 5693 5691 5690 5688 5688 5690 5693 5697 5701 5705 5709 5714 5718 5722 5726 5729 5732 5736 5741 5746 5750 5754
5696 5696 5695 5695 5695 5694 5691 5688 5687 5686 5685 5685 5687 5690 5692 5695 5695 5696 5696 5697 5697 5695 5695 5694 5692 5693 5693 5696 5699 5703 5706 5711 5715 5719 5722 5726 5729 5733 5738 5742 5747 5751 5755
5695 5694 5694 5695 5694 5692 5689 5686 5685 5684 5682 5682 5685 5689 5692 5694 5695 5696 5697 5698 5698 5698 5698 5698 5697 5697 5698 5699 5702 5705 5709 5712 5716 5720 5724 5728 5732 5735 5740 5743 5748 5752 5756
5693 5693 5694 5693 5693 5691 5688 5687 5685 5684 5683 5684 5687 5690 5692 5694 5695 5696 5697 5698 5699 5700 5701 5701 5702 5703 5703 5703 5705 5708 5711 5715 5719 5723 5727 5731 5735 5739 5743 5747 5751 5755 5758
5691 5692 5693 5692 5692 5691 5688 5687 5686 5685 5686 5687 5689 5691 5693 5695 5696 5697 5697 5698 5699 5701 5703 5704 5705 5706 5707 5709 5710 5713 5716 5719 5723 5727 5730 5734 5738 5742 5746 5749 5753 5757 5762
5690 5692 5692 5692 5693 5692 5690 5688 5686 5686 5687 5688 5691 5693 5695 5696 5696 5697 5698 5698 5699 5701 5703 5705 5707 5709 5711 5713 5715 5718 5720 5722 5725 5729 5734 5739 5742 5746 5749 5754 5758 5761 5763
5690 5691 5692 5693 5694 5694 5693 5691 5689 5687 5688 5690 5694 5697 5698 5699 5699 5698 5699 5699 5700 5703 5705 5707 5709 5711 5713 5716 5719 5722 5725 5727 5730 5734 5738 5742 5746 5750 5754 5757 5759 5762 5764
5689 5690 5692 5695 5696 5696 5696 5695 5692 5689 5687 5692 5696 5700 5701 5702 5702 5701 5701 5703 5703 5704 5707 5709 5711 5714 5716 5719 5722 5725 5729 5732 5734 5738 5742 5747 5751 5753 5756 5758 5761 5762 5764
5689 5690 5693 5696 5698 5699 5699 5698 5697 5695 5693 5697 5700 5703 5705 5706 5707 5707 5707 5707 5707 5708 5710 5712 5714 5717 5719 5721 5724 5727 5730 5734 5738 5742 5746 5750 5753 5755 5757 5759 5760 5762 5762
5689 5691 5695 5698 5700 5701 5702 5702 5701 5702 5702 5703 5705 5707 5709 5710 5711 5712 5713 5713 5714 5714 5715 5717 5719 5721 5723 5725 5728 5731 5735 5738 5743 5746 5749 5752 5753 5755 5756 5757 5758 5759 5760
5689 5691 5695 5699 5702 5703 5704 5704 5705 5705 5706 5708 5710 5711 5712 5713 5714 5716 5717 5718 5719 5720 5721 5722 5724 5726 5728 5730 5733 5736 5739 5742 5745 5747 5750 5752 5753 5754 5755 5756 5757 5757 5757
5687 5690 5694 5697 5701 5704 5705 5706 5707 5708 5709 5711 5713 5715 5716 5717 5718 5719 5720 5721 5722 5724 5726 5727 5728 5730 5732 5734 5736 5738 5741 5743 5745 5747 5749 5751 5752 5753 5754 5754 5754 5754 5754
5685 5689 5693 5696 5699 5703 5705 5707 5708 5709 5711 5713 5715 5717 5719 5720 5721 5722 5723 5725 5726 5728 5729 5731 5733 5735 5736 5737 5739 5741 5743 5744 5745 5747 5748 5748 5750 5750 5750 5751 5751 5751 5750
5683 5687 5691 5695 5698 5700 5704 5707 5708 5709 5710 5712 5714 5717 5719 5720 5722 5723 5724 5726 5728 5729 5731 5732 5734 5736 5737 5739 5740 5742 5743 5743 5744 5744 5745 5745 5746 5746 5746 5746 5746 5746 5745
5682 5685 5687 5690 5694 5698 5701 5703 5706 5708 5709 5711 5713 5715 5717 5719 5721 5722 5724 5726 5727 5728 5730 5731 5732 5733 5735 5736 5737 5738 5740 5740 5741 5742 5742 5743 5743 5743 5742 5742 5741 5741 5740
5676 5680 5683 5687 5689 5692 5696 5700 5702 5705 5707 5709 5710 5712 5713 5715 5717 5720 5722 5724 5725 5726 5727 5728 5729 5730 5731 5732 5733 5734 5735 5735 5736 5736 5736 5737 5737 5737 5737 5736 5736 5734 5733
5671 5674 5678 5683 5685 5688 5690 5693 5696 5700 5702 5704 5707 5708 5710 5711 5713 5715 5716 5718 5720 5722 5723 5724 5725 5726 5726 5728 5729 5729 5730 5730 5730 5730 5730 5730 5730 5730 5729 5729 5728 5726 5725
5663 5667 5672 5675 5679 5683 5686 5688 5692 5694 5697 5699 5703 5705 5707 5708 5709 5710 5711 5712 5714 5715 5717 5718 5719 5719 5719 5720 5720 5721 5721 5721 5721 5721 5721 5721 5722 5722 5720 5720 5719 5717 5716